GEFSMA_con_prob3kmehi_186.txt.gz
EHI
3 5 6 4 1 1 1 0 0 1 0 0 0 0 1 0 1 1 1 0 0 0 0 0 0 0 0 0 0 0 0 0 0 0 0 0 0 0 0 0 0 0 0
7 8 8 5 3 3 3 1 0 1 0 0 0 0 1 1 1 1 0 0 0 0 0 0 0 0 0 0 0 0 0 0 0 0 0 0 0 0 0 0 0 0 0
13 14 11 7 5 7 7 3 1 1 0 0 0 0 1 2 2 1 0 0 0 0 0 0 0 0 0 0 0 0 0 0 0 0 0 0 0 0 0 0 0 0 0
17 16 13 8 7 9 7 4 2 1 1 1 0 0 0 1 1 0 0 0 0 0 0 0 0 0 0 0 0 0 0 0 0 0 0 0 0 0 0 0 0 0 0
17 16 13 10 9 10 8 5 6 6 3 1 0 0 0 0 0 0 0 0 0 0 0 0 0 0 0 0 0 0 0 0 0 0 0 0 0 0 0 0 0 0 0
18 16 16 16 14 11 8 8 12 11 5 1 0 0 0 0 1 1 1 1 1 1 2 2 1 0 0 0 0 0 0 0 0 0 0 0 0 0 0 0 0 0 0
21 19 19 21 17 11 8 11 14 11 5 1 0 0 0 0 2 2 2 2 3 4 5 5 4 2 1 0 0 0 0 0 0 0 0 0 0 0 0 0 0 0 0
24 21 21 20 16 11 10 11 12 9 4 1 1 0 0 0 1 2 2 2 4 6 7 7 8 7 4 2 1 0 0 0 0 0 0 0 0 0 0 0 0 0 0
24 24 23 20 16 12 11 12 12 10 5 1 0 0 0 0 0 0 1 2 5 7 5 5 9 9 8 7 5 2 0 0 0 0 0 0 0 0 0 0 0 0 0
23 25 26 26 21 16 13 12 12 12 7 2 0 0 1 1 1 0 0 1 4 6 4 3 6 8 9 11 10 6 1 0 0 0 0 0 0 0 0 0 0 0 0
23 23 28 33 29 22 18 15 14 13 8 3 0 0 1 1 1 0 0 0 2 3 3 3 4 7 9 11 11 7 2 0 0 0 0 0 0 0 0 0 0 0 0
27 24 29 38 36 31 27 24 19 15 10 6 3 1 1 1 1 0 0 0 0 2 4 5 5 6 8 9 9 6 2 1 0 0 0 0 0 0 0 0 0 0 0
32 29 33 41 42 37 34 30 26 20 16 12 8 4 3 3 3 2 1 0 0 2 4 5 6 6 7 8 7 5 3 1 0 0 0 0 0 0 0 0 0 0 0
37 38 42 45 44 39 34 33 29 24 23 19 13 10 8 7 6 5 3 2 1 1 2 4 6 9 11 11 7 4 3 1 0 0 0 0 0 0 0 0 0 0 0
39 44 46 45 42 39 37 35 31 27 26 23 19 17 14 10 9 9 8 6 3 1 1 3 8 12 14 12 6 3 3 1 0 0 0 0 0 0 0 0 0 0 0
41 44 44 41 39 39 40 38 32 29 28 25 22 20 17 12 9 10 10 9 7 4 2 3 7 11 11 8 4 2 3 1 0 0 0 0 0 0 0 0 0 0 0
43 44 43 41 38 38 40 38 33 29 27 24 22 21 19 14 11 9 10 10 9 7 4 2 3 7 10 8 5 4 2 0 0 0 0 0 0 0 0 0 0 0 0
46 45 44 41 37 35 37 37 33 28 24 22 22 22 20 17 13 10 10 10 10 9 7 3 1 6 10 10 8 5 2 0 0 0 0 0 0 0 0 0 0 0 0
46 45 43 39 35 35 36 35 33 28 25 23 23 24 22 20 17 13 12 11 10 9 8 5 2 4 8 8 7 4 1 0 0 0 0 0 0 0 0 0 0 0 0
44 43 41 37 35 35 35 35 34 30 26 24 23 23 22 20 18 15 13 12 10 9 8 6 3 3 4 5 4 2 0 0 0 0 0 0 0 0 0 0 0 0 0
42 42 39 36 34 33 32 31 31 29 27 24 23 22 20 17 14 12 11 10 9 8 7 5 3 2 1 2 3 2 0 0 0 0 0 0 0 0 0 0 0 0 0
39 39 37 34 31 28 23 19 20 24 25 24 23 21 18 12 8 6 6 5 5 6 5 5 4 2 1 3 4 3 1 0 0 0 0 0 0 0 0 0 0 0 0
35 34 33 33 30 24 16 8 8 15 20 22 22 20 16 11 7 5 4 3 3 3 3 4 4 3 1 3 5 4 2 0 0 0 0 0 0 0 0 0 0 0 0
31 31 31 32 29 22 13 5 2 8 16 19 19 17 14 11 8 7 6 5 4 3 2 2 3 3 1 2 3 2 1 0 0 0 0 0 0 0 0 0 0 0 0
31 31 31 32 29 21 12 4 2 6 14 18 17 14 12 10 8 5 6 7 6 5 3 1 1 1 0 0 1 0 0 0 0 0 0 0 0 0 0 0 0 0 0
34 33 32 32 29 21 12 4 2 7 13 17 16 12 9 8 6 4 4 6 7 6 5 2 1 0 0 0 0 0 0 0 0 0 0 0 0 0 0 0 0 0 0

GEFSMA_con_prob3kmehi_192.txt.gz
EHI
0 0 0 0 0 0 0 0 0 0 0 0 0 0 0 0 0 0 0 0 0 0 0 0 0 0 0 0 0 0 0 0 0 0 0 0 0 0 0 0 0 0 0
0 0 0 0 0 0 0 0 0 0 0 0 0 0 0 0 0 0 0 0 0 0 0 0 0 0 0 0 0 0 0 0 0 0 0 0 0 0 0 0 0 0 0
0 0 0 0 0 0 0 0 0 0 0 0 0 0 0 0 0 0 0 0 0 0 0 0 0 0 0 0 0 0 0 0 0 0 0 0 0 0 0 0 0 0 0
2 2 1 0 0 0 0 0 0 0 0 0 0 0 0 0 0 0 0 0 0 0 0 1 1 0 0 0 0 0 0 0 0 0 0 0 0 0 0 0 0 0 0
4 4 2 0 0 0 0 0 0 0 0 0 0 0 0 0 0 0 0 0 0 0 0 1 1 0 0 0 0 0 0 0 0 0 0 0 0 0 0 0 0 0 0
7 6 3 0 0 0 0 0 0 0 0 0 0 0 0 0 0 0 0 0 0 0 0 0 0 0 0 0 0 0 0 0 0 0 0 0 0 0 0 0 0 0 0
9 7 4 1 0 0 0 0 0 0 0 0 0 0 0 0 0 0 0 0 0 0 0 0 0 0 0 0 0 0 0 0 0 0 0 0 0 0 0 0 0 0 0
8 7 5 2 0 0 0 0 0 0 0 0 0 0 0 0 0 0 0 0 0 0 0 0 0 0 0 0 0 0 0 0 0 0 0 0 0 0 0 0 0 0 0
7 6 5 3 1 0 0 0 0 0 0 0 0 0 0 0 0 0 0 0 0 0 0 0 0 0 0 0 0 0 0 0 0 0 0 0 0 0 0 0 0 0 0
7 6 4 3 1 0 0 0 0 0 0 0 0 0 0 0 0 0 0 0 0 0 0 0 0 0 0 0 0 0 0 0 0 0 0 1 1 0 0 0 0 0 0
9 7 5 4 2 1 1 1 0 0 0 0 0 0 0 0 0 0 0 0 0 0 0 0 0 0 0 0 0 0 0 0 0 0 0 1 1 1 1 0 0 0 0
9 9 8 6 3 2 3 3 2 1 0 0 0 0 0 0 0 0 0 0 0 0 0 0 0 0 0 0 0 0 0 0 0 0 0 1 1 1 1 0 0 0 0
8 10 10 8 5 4 4 5 5 3 1 1 0 0 0 0 0 0 0 0 0 0 0 0 0 0 0 0 0 0 0 0 0 0 0 0 0 1 1 0 0 0 0
9 9 9 8 6 4 4 5 5 4 3 2 1 1 0 0 0 0 0 0 0 0 0 0 0 0 0 0 0 0 0 0 0 0 0 0 0 0 0 0 0 0 0
12 10 8 7 5 4 4 4 4 4 3 3 3 2 1 0 0 0 0 0 0 0 0 0 0 0 0 0 0 0 0 0 0 0 0 0 0 0 0 0 0 0 0
14 11 8 6 5 5 6 6 4 3 3 3 3 2 1 0 0 0 0 0 0 0 0 0 0 0 0 0 0 0 0 0 0 0 0 0 0 0 0 0 0 0 0
11 10 8 6 6 8 10 10 7 5 3 3 2 2 1 0 0 0 0 0 0 0 0 0 0 0 0 0 0 0 0 0 0 0 0 0 0 0 0 0 0 0 0
6 7 6 6 7 9 11 12 10 7 4 2 1 1 0 0 0 0 0 0 0 0 0 0 0 0 0 0 0 0 0 0 0 0 0 0 0 0 0 0 0 0 0
4 4 4 6 8 10 11 12 11 7 3 2 2 1 0 0 0 1 1 0 0 0 0 0 0 0 0 0 0 0 0 0 0 0 0 0 0 0 0 0 0 0 0
7 6 4 5 8 10 12 12 10 6 4 3 3 2 0 0 1 2 2 2 1 1 0 0 0 0 0 0 0 0 0 0 0 0 0 0 0 0 0 0 0 0 0
10 9 6 6 8 11 12 11 9 7 5 4 3 2 0 0 1 2 3 3 3 2 1 0 0 0 0 0 0 0 0 0 0 0 0 0 0 0 0 0 0 0 0
9 9 8 8 9 11 11 8 7 8 6 5 4 3 2 1 0 1 1 2 2 2 1 0 0 0 0 0 0 0 0 0 0 0 0 0 0 0 0 0 0 0 0
11 11 11 11 12 11 8 4 3 5 6 6 6 5 4 1 0 0 0 0 1 1 1 1 0 0 0 0 0 0 0 0 0 0 0 0 0 0 0 0 0 0 0
17 17 16 14 13 11 6 1 0 2 3 4 5 5 4 2 1 0 0 0 0 0 0 0 0 0 0 0 0 0 0 0 0 0 0 0 0 0 0 0 0 0 0
19 18 17 15 13 10 5 1 0 0 1 1 2 2 3 2 1 0 0 0 0 0 0 0 0 0 0 0 0 0 0 0 0 0 0 0 0 0 0 0 0 0 0
19 17 14 13 12 9 5 1 0 0 0 0 0 1 1 1 0 0 0 0 0 0 0 0 0 0 0 0 0 0 0 0 0 0 0 0 0 0 0 0 0 0 0

GEFSMA_con_prob3kmehi_198.txt.gz
EHI
0 0 0 0 0 0 0 0 0 0 0 0 0 0 0 0 0 0 0 0 0 0 0 0 0 0 0 0 0 0 0 0 0 0 0 0 0 0 0 0 0 0 0
0 0 0 0 0 0 0 0 0 0 0 0 0 0 0 0 0 0 0 0 0 0 0 0 0 0 0 0 0 0 0 0 0 0 0 0 0 0 0 0 0 0 0
0 0 0 0 0 0 0 0 0 0 0 0 0 0 0 0 0 0 0 0 0 0 0 0 0 0 0 0 0 0 0 0 0 0 0 0 0 0 0 0 0 0 0
0 0 0 0 0 0 0 0 0 0 0 0 0 0 0 0 0 0 0 0 0 0 0 0 0 0 0 0 0 0 0 0 0 0 0 0 0 0 0 0 0 0 0
1 0 0 0 0 0 0 0 0 0 0 0 0 0 0 0 0 0 0 0 0 0 0 0 0 0 0 0 0 0 0 0 0 0 0 0 0 0 0 0 0 0 0
2 1 0 0 0 0 0 0 0 0 0 0 0 0 0 0 0 0 0 0 0 0 0 0 0 0 0 0 0 0 0 0 0 0 0 0 0 0 0 0 0 0 0
3 2 1 0 0 0 0 0 0 0 0 0 0 0 0 0 0 0 0 0 0 0 0 0 0 0 0 0 0 0 0 0 0 0 0 0 0 0 0 0 0 0 0
3 3 2 1 0 0 0 0 0 0 0 0 0 0 0 0 0 0 0 0 0 0 0 0 0 0 0 0 0 0 0 0 0 0 0 0 0 0 0 0 0 0 0
3 3 3 1 1 0 0 0 0 0 0 0 0 0 0 0 0 0 0 0 0 0 0 0 0 0 0 0 0 0 0 0 0 0 0 0 0 0 0 0 0 0 0
4 4 3 3 2 1 1 0 0 0 0 0 0 0 0 0 0 0 0 0 0 0 0 0 0 0 0 0 0 0 0 0 0 0 0 0 0 0 0 0 0 0 0
4 5 4 3 3 2 1 0 0 0 0 0 0 0 0 0 0 0 0 0 0 0 0 0 0 0 0 0 0 0 0 0 0 0 0 0 0 0 0 0 0 0 0
4 5 5 4 3 3 2 1 1 1 1 1 1 0 0 0 0 0 0 0 0 0 0 0 0 0 0 0 0 0 0 0 0 0 0 0 0 0 0 0 0 0 0
4 4 5 4 3 3 2 2 2 2 2 2 2 1 1 0 0 0 0 0 0 0 0 0 0 0 0 0 0 0 0 0 0 0 0 0 0 0 0 0 0 0 0
5 4 4 3 3 3 3 2 1 2 3 3 2 2 2 1 1 1 1 0 0 0 0 0 0 0 0 0 0 0 0 0 0 0 0 0 0 0 0 0 0 0 0
5 4 3 3 4 4 4 2 1 1 1 2 2 2 3 3 2 2 2 1 0 0 0 0 0 0 0 0 0 0 0 0 0 0 0 0 0 0 0 0 0 0 0
6 4 3 3 3 3 3 3 2 1 1 1 2 2 3 3 3 3 3 2 1 1 0 0 0 0 0 0 0 0 0 0 0 0 0 0 0 0 0 0 0 0 0
4 3 2 1 1 1 1 1 1 1 1 1 2 2 2 3 3 3 3 3 3 2 1 0 0 0 0 0 0 0 0 0 0 0 0 0 0 0 0 0 0 0 0
2 1 1 1 1 1 0 0 0 0 0 1 1 1 2 2 2 2 3 3 3 3 2 1 0 0 0 0 0 0 0 0 0 0 0 0 0 0 0 0 0 0 0
1 1 2 2 2 2 1 1 0 0 0 0 0 0 1 1 1 1 1 2 3 3 2 1 0 0 0 0 0 0 0 0 0 0 0 0 0 0 0 0 0 0 0
5 4 3 3 3 3 3 2 1 1 1 1 1 1 0 0 0 1 1 2 2 2 1 1 0 0 0 0 0 0 0 0 0 0 0 0 0 0 0 0 0 0 0
9 6 4 3 3 3 3 3 3 2 2 2 2 2 1 0 0 1 2 1 1 1 0 0 0 0 0 1 1 0 0 0 0 0 0 0 0 0 0 0 0 0 0
10 9 6 5 4 3 3 3 3 3 3 3 3 3 2 1 0 1 1 1 0 0 0 1 0 0 0 1 2 1 1 0 0 0 0 0 0 0 0 0 0 0 0
12 11 9 7 6 5 3 1 1 2 3 3 3 3 3 2 1 0 0 0 0 0 0 0 0 0 0 1 2 3 2 1 1 0 0 0 0 0 0 0 0 0 0
13 12 11 10 8 7 3 1 0 1 3 3 3 3 3 3 2 1 0 0 0 0 0 0 0 0 0 1 2 2 2 2 1 0 0 0 0 0 0 0 0 0 0
12 11 10 9 8 7 3 1 0 1 3 4 4 3 3 2 2 1 0 0 0 0 0 0 0 0 0 0 1 1 1 1 1 0 0 0 0 0 0 0 0 0 0
12 10 9 8 7 6 3 1 0 1 4 5 5 3 2 2 2 1 0 0 0 0 0 0 0 0 0 0 0 0 0 0 0 1 1 1 0 0 0 0 0 0 0

GEFSMA_con_prob3kmehi_204.txt.gz
EHI
0 0 0 0 0 0 0 0 0 0 0 0 0 0 0 0 0 0 0 0 0 0 0 0 0 0 0 0 0 0 0 0 0 0 0 0 0 0 0 0 0 0 0
0 0 0 0 0 0 0 0 0 0 0 0 0 0 0 0 0 0 0 0 0 0 0 0 0 0 0 0 0 0 0 0 0 0 0 0 0 0 0 0 0 0 0
0 0 0 0 0 0 0 0 0 0 0 0 0 0 0 0 0 0 0 0 0 0 0 0 0 0 0 0 0 0 0 0 0 0 0 0 0 0 0 0 0 0 0
1 0 0 0 0 0 0 0 1 1 0 0 0 0 0 0 0 0 0 0 0 0 0 0 0 0 0 0 0 0 0 0 0 0 0 0 0 0 0 0 0 0 0
2 1 0 0 1 0 0 1 2 2 1 0 0 0 0 0 0 0 0 0 0 0 0 0 0 0 0 0 0 0 0 0 0 0 0 0 0 0 0 0 0 0 0
4 3 1 1 1 1 1 1 2 2 1 0 0 0 0 0 0 0 0 0 0 0 0 0 0 0 0 0 0 0 1 1 1 0 0 0 0 0 0 0 0 0 0
6 5 3 2 3 3 3 2 2 1 1 0 0 0 0 0 0 0 0 0 0 0 0 0 0 0 0 0 0 1 2 3 2 1 0 0 0 0 0 0 0 0 0
9 8 6 4 4 6 6 5 4 3 2 1 1 1 0 0 0 0 0 0 0 0 0 0 0 0 0 0 0 2 4 4 3 2 1 0 0 0 0 0 0 0 0
10 10 8 7 7 8 8 8 7 5 4 4 3 2 1 0 0 0 0 0 0 0 0 0 0 0 0 1 1 2 3 3 2 2 1 0 0 0 0 0 0 0 0
9 9 9 9 10 10 10 9 9 9 8 7 5 4 2 1 1 1 0 0 0 0 0 0 0 0 1 2 2 1 1 1 0 1 1 0 0 0 0 0 0 0 0
9 9 9 11 12 12 10 8 8 10 10 9 6 4 4 4 4 3 1 0 0 0 0 0 0 0 1 2 2 1 0 0 0 0 0 0 0 0 0 0 0 0 0
12 10 10 11 13 12 9 7 8 9 9 8 7 6 6 7 7 6 3 1 0 0 0 0 0 0 0 1 1 0 0 0 0 0 0 0 0 0 0 0 0 0 0
13 11 10 12 13 12 9 8 9 9 8 7 7 7 8 10 10 9 6 2 0 0 0 0 0 1 1 1 1 1 1 0 0 0 0 0 0 0 0 0 0 0 0
13 12 11 13 14 12 10 9 11 11 10 9 8 7 8 9 9 10 9 7 3 1 1 1 1 2 2 3 2 1 1 0 0 0 0 0 0 0 0 0 0 0 0
13 13 13 14 13 11 9 8 9 11 12 11 9 7 7 8 8 10 13 12 8 4 1 2 3 4 5 3 2 1 0 0 0 0 0 0 0 0 0 0 0 0 0
15 14 13 12 11 11 11 9 7 8 10 10 10 8 8 8 9 11 14 15 13 7 2 2 3 5 6 4 2 1 0 0 0 0 0 0 0 0 0 0 0 0 0
15 13 12 9 9 11 13 11 8 8 9 9 9 10 10 11 11 12 14 16 16 13 7 3 3 5 8 9 8 5 2 0 0 0 0 0 0 0 0 0 0 0 0
12 12 10 8 8 11 12 11 10 10 10 11 11 12 12 13 15 15 16 18 19 19 15 8 6 9 13 15 15 12 7 4 2 0 0 0 0 0 0 0 0 0 0
11 11 11 8 9 11 12 12 12 12 12 13 14 14 14 15 17 19 21 22 22 23 21 16 13 16 18 19 19 16 13 11 5 0 0 0 0 0 0 0 0 0 0
12 12 12 11 11 12 13 14 15 15 15 15 15 15 14 14 15 17 20 23 25 25 24 21 18 19 20 20 19 16 14 13 8 3 1 0 0 0 0 0 0 0 0
16 16 15 14 12 11 12 13 15 18 18 17 16 15 13 11 10 9 12 16 20 22 23 22 21 20 19 19 17 14 12 11 10 7 5 3 1 1 1 1 0 0 0
22 21 19 17 15 12 10 8 10 15 19 19 18 17 13 9 7 5 5 6 8 12 16 19 20 19 18 16 14 12 11 10 10 10 9 5 2 2 2 2 1 0 0
25 24 22 20 18 15 10 4 4 10 16 18 17 16 12 9 8 7 6 5 4 5 7 10 13 15 16 16 14 11 9 9 8 9 8 4 2 3 3 2 1 0 0
28 25 22 21 19 15 8 2 2 7 11 12 13 13 11 9 8 8 9 10 9 5 3 3 6 8 10 11 10 7 6 6 6 6 5 3 2 3 3 2 1 0 0
29 25 21 20 19 14 8 2 3 7 8 8 8 9 9 8 6 5 7 10 11 8 4 2 2 2 3 4 3 3 3 3 3 3 4 4 3 3 3 3 1 1 0
28 22 18 19 19 14 8 3 3 6 7 7 7 7 6 6 4 2 4 8 10 8 5 2 2 1 0 0 0 0 1 1 1 2 4 4 4 3 3 3 2 2 1

GEFSMA_con_prob3kmehi_210.txt.gz
EHI
7 7 8 7 4 2 2 1 0 0 1 1 1 1 0 0 0 0 1 3 5 5 4 3 1 0 0 0 0 0 0 0 0 0 0 0 0 0 1 0 0 0 0
9 9 9 7 4 2 3 2 0 1 2 1 1 1 1 1 0 0 0 2 4 5 4 3 2 1 0 0 0 0 0 0 0 0 0 0 0 0 1 0 0 0 0
12 11 9 7 5 3 3 3 2 2 2 1 1 1 2 2 1 1 3 4 4 3 4 4 3 1 0 0 0 0 0 0 0 0 0 0 0 0 0 0 0 0 0
13 12 9 8 8 5 3 4 4 3 2 1 1 2 4 5 4 5 6 8 7 5 4 4 4 3 1 1 0 0 0 0 0 0 0 0 0 0 0 0 0 0 0
17 15 12 12 11 9 6 5 6 5 2 1 0 2 5 8 9 7 7 9 13 13 9 5 4 4 3 2 1 1 1 1 1 0 0 0 0 0 0 0 0 0 0
21 18 16 15 14 13 10 7 8 7 4 2 1 2 5 10 12 10 6 7 13 18 19 14 7 4 3 3 3 3 3 3 3 2 1 0 0 0 0 0 0 0 0
21 19 18 17 16 14 12 10 10 9 7 4 3 3 4 8 12 12 8 6 9 16 23 23 17 11 7 5 4 5 6 6 6 6 4 3 1 0 0 0 0 0 0
21 19 19 18 16 14 13 14 13 12 9 7 6 5 4 4 8 9 9 9 10 15 21 25 28 26 20 13 8 6 6 8 10 10 10 8 5 2 1 0 0 0 0
23 21 20 20 18 15 16 17 16 14 11 10 10 9 6 4 3 4 6 10 14 17 18 20 27 33 29 23 17 10 7 8 10 11 12 11 8 5 2 0 0 0 0
25 23 23 24 21 16 17 18 17 15 14 13 13 11 9 7 5 4 5 8 12 15 17 15 18 26 30 30 27 19 9 4 4 7 9 11 10 6 2 0 0 0 0
27 25 28 31 27 21 19 19 18 17 16 14 13 12 11 10 8 5 5 6 8 12 17 17 16 20 28 33 32 23 11 3 1 2 5 8 10 8 4 1 0 0 0
33 33 35 39 37 30 26 24 21 19 17 15 13 13 13 13 11 7 4 4 4 9 17 21 21 21 25 29 28 20 11 5 1 0 1 4 7 8 6 3 1 0 0
42 43 45 48 46 38 33 29 26 23 21 19 16 15 15 15 13 9 5 2 1 5 12 18 21 21 21 23 20 14 9 4 1 0 0 1 2 4 5 4 2 1 0
45 48 51 51 49 41 35 35 33 29 27 26 22 19 18 18 16 13 8 3 0 1 5 10 15 18 20 19 15 10 7 3 0 0 0 0 0 1 1 2 2 1 1
44 47 49 49 47 41 38 40 39 35 33 31 26 21 20 19 17 15 12 7 4 2 2 5 8 12 16 15 11 9 9 4 0 0 0 0 0 0 0 0 1 1 0
47 49 47 46 45 43 42 42 40 35 34 32 26 21 20 20 17 15 13 11 9 6 5 5 7 9 11 10 9 11 12 7 2 0 0 0 0 0 0 0 0 0 0
55 53 50 47 45 44 43 42 37 33 33 30 24 20 19 19 18 15 13 11 10 8 7 7 10 12 12 11 11 13 13 8 3 1 0 0 0 0 0 0 0 0 0
62 57 51 47 45 45 45 42 38 34 31 27 23 19 17 17 17 17 15 11 9 8 6 6 8 11 13 13 15 14 11 6 3 1 0 0 0 0 0 0 0 0 0
62 55 49 46 44 44 44 42 38 35 31 26 23 19 16 16 17 18 17 15 11 8 7 5 4 6 8 11 13 12 9 7 3 1 0 0 0 0 0 0 0 0 0
54 51 49 47 44 40 37 37 36 34 30 26 23 19 16 14 14 15 16 15 12 10 8 5 3 4 5 8 9 8 7 7 5 2 1 1 0 0 0 0 0 0 0
48 49 49 48 42 34 27 26 30 30 27 24 22 18 13 10 8 8 9 10 9 9 9 8 6 6 7 8 7 6 5 5 5 4 3 2 1 0 0 0 0 0 0
49 48 46 44 38 27 17 14 18 21 20 18 18 17 12 7 5 4 4 3 4 6 8 8 7 6 7 8 7 5 4 3 3 3 3 3 2 1 1 0 0 0 0
50 47 44 41 33 22 12 8 8 12 13 13 16 17 13 8 7 6 4 2 2 3 4 5 5 4 5 6 6 5 4 4 3 2 2 3 2 2 1 0 0 0 0
47 45 42 38 30 19 11 6 4 7 10 11 13 14 12 9 7 6 5 4 4 4 3 2 2 3 3 3 3 4 5 5 4 2 2 3 2 1 1 0 0 0 0
43 41 38 34 27 17 9 5 4 7 11 10 9 9 8 7 6 4 4 5 5 5 4 2 1 2 1 0 1 3 5 6 5 3 3 3 2 1 0 1 1 1 0
42 38 33 30 24 15 8 4 4 8 11 10 7 6 6 6 5 4 4 5 6 5 5 4 2 1 0 0 0 2 4 6 5 4 3 3 3 2 1 2 2 2 1

GEFSMA_con_prob3kmehi_216.txt.gz
EHI
0 0 0 0 0 0 0 0 0 0 0 0 0 0 0 0 0 0 0 1 3 5 6 6 6 4 1 0 0 0 0 0 0 0 0 0 0 0 0 0 0 0 0
1 1 1 0 0 0 0 0 0 0 0 0 0 0 0 0 0 0 0 1 2 5 6 6 6 4 2 1 0 0 0 0 0 0 0 0 0 0 0 0 0 0 0
4 4 3 1 0 0 0 0 0 0 0 0 0 0 0 0 0 0 0 0 1 3 5 6 6 5 3 1 0 0 0 0 0 0 0 0 0 0 0 0 0 0 0
7 7 5 3 1 0 0 0 0 0 0 0 0 0 0 0 0 0 0 0 0 1 2 5 7 6 5 3 2 1 1 0 0 0 0 0 0 0 0 0 0 0 0
11 9 6 4 2 1 0 0 0 0 0 0 0 0 0 0 0 0 0 0 0 0 0 2 5 6 6 6 6 5 4 2 1 1 0 0 0 0 0 0 0 0 0
14 11 7 5 4 3 2 1 0 0 0 0 0 0 0 0 0 0 0 0 0 0 0 1 2 3 5 8 9 10 9 7 5 3 1 1 0 0 0 0 0 0 0
15 13 10 8 7 6 5 3 1 0 0 0 0 0 0 0 0 0 0 0 0 0 0 0 0 1 4 7 10 12 14 13 10 8 5 3 1 0 0 0 0 0 0
15 15 13 11 10 9 8 6 3 2 1 0 0 0 0 0 0 0 0 0 0 0 0 0 0 1 2 5 6 10 14 15 15 13 9 6 4 2 0 0 0 0 0
15 15 15 13 12 11 9 8 7 6 4 2 0 0 0 0 0 0 0 0 0 0 0 0 1 2 2 3 3 5 8 12 14 14 12 10 8 4 1 0 0 0 0
13 14 14 13 13 11 10 8 7 7 6 3 1 0 0 0 0 0 0 0 0 0 0 0 1 2 3 3 3 3 4 6 9 13 13 12 10 6 3 1 0 0 0
12 12 12 12 12 11 10 7 6 6 6 4 2 1 0 0 0 0 0 0 0 0 0 0 0 1 2 3 3 4 3 3 5 8 11 12 11 9 7 4 2 1 0
11 12 12 11 10 10 8 6 5 5 5 5 3 2 1 1 1 0 0 0 0 0 0 0 0 0 1 1 2 3 3 1 1 3 6 10 11 11 11 9 6 4 2
12 13 13 12 11 8 6 4 4 4 4 3 3 2 2 2 2 1 1 1 0 0 0 0 0 0 0 0 0 1 2 1 0 0 2 4 6 8 9 10 9 7 6
14 14 14 14 13 11 7 6 5 4 3 2 1 1 2 2 3 3 2 2 1 0 0 0 0 0 0 0 0 0 0 0 0 0 0 0 1 2 4 5 6 6 6
16 16 16 16 15 13 11 10 9 6 4 3 2 2 2 2 2 3 3 3 2 1 1 1 0 0 0 0 0 0 0 0 0 0 0 0 0 0 0 1 2 3 3
16 16 16 15 14 13 13 13 12 8 5 4 3 3 3 2 1 2 3 3 3 3 2 1 0 0 0 0 0 0 0 0 0 0 0 0 0 0 0 0 0 1 1
15 15 14 13 15 16 15 15 14 10 6 4 3 3 3 2 2 2 3 3 3 3 3 2 0 0 0 0 0 0 0 0 0 0 0 0 0 0 0 0 0 0 0
12 12 12 14 19 20 17 15 14 11 8 5 4 3 3 3 3 3 4 4 4 4 4 2 1 0 0 0 0 0 0 0 0 0 0 0 0 0 0 0 0 0 0
11 10 11 15 18 18 16 14 13 12 11 8 6 5 4 4 3 4 4 5 5 5 4 3 1 1 0 0 0 0 0 0 0 0 0 0 0 0 0 0 0 0 0
10 9 8 10 13 13 12 12 12 12 11 9 7 6 5 4 4 3 4 4 4 4 4 3 1 1 0 0 0 0 0 0 0 0 0 0 0 0 0 0 0 0 0
9 8 6 6 8 9 10 11 12 11 10 8 7 7 5 4 3 2 2 2 2 2 2 2 1 0 0 0 0 0 1 1 1 0 0 0 0 0 0 0 0 0 0
10 8 6 6 6 7 8 9 10 10 8 7 7 7 5 3 1 1 1 0 1 1 1 1 1 1 1 0 0 0 1 2 2 1 0 0 0 0 0 0 0 0 0
14 11 7 7 7 6 6 5 5 6 6 6 6 6 4 2 1 1 0 0 1 1 1 1 2 2 2 1 0 0 1 2 1 1 1 0 0 0 0 0 0 0 0
16 12 8 7 6 6 5 3 2 2 3 5 6 5 4 3 2 1 0 0 1 1 1 1 2 2 2 1 0 0 0 0 0 0 1 1 0 0 0 0 0 0 0
16 12 8 7 6 4 3 1 0 0 1 3 4 4 5 4 3 1 0 0 1 1 0 0 1 1 1 0 0 0 0 0 0 0 0 0 0 0 0 0 0 0 0
16 12 8 6 6 4 1 0 0 0 1 3 4 4 4 4 3 1 0 0 0 0 0 0 0 0 0 0 0 0 0 0 0 0 0 0 0 0 0 0 0 0 0

GEFSMA_con_prob3kmehi_222.txt.gz
EHI
0 0 0 0 0 0 0 0 0 0 0 0 0 0 0 0 0 0 0 0 1 2 2 3 3 2 1 0 0 0 0 0 0 0 0 0 0 0 0 0 0 0 0
0 0 0 0 0 0 0 0 0 0 0 0 0 0 0 0 0 0 0 0 0 1 1 2 3 3 2 1 1 0 0 0 0 0 0 0 0 0 0 0 0 0 0
1 0 0 0 0 0 0 0 0 0 0 0 0 0 0 0 0 0 0 0 0 0 0 1 3 4 3 3 2 1 1 1 0 0 0 0 0 0 0 0 0 0 0
3 2 1 1 0 0 0 0 0 0 0 0 0 0 0 0 0 0 0 0 0 0 0 0 1 2 3 2 2 2 2 2 1 1 0 0 0 0 0 0 0 0 0
5 4 4 2 1 1 0 0 0 0 0 0 0 0 0 0 0 0 0 0 0 0 0 0 0 1 1 1 1 1 2 3 2 2 1 1 0 0 0 0 0 0 0
7 7 6 4 3 2 1 0 0 0 0 0 0 0 0 0 0 0 0 0 0 0 0 0 0 0 0 0 0 0 1 2 2 3 2 2 1 0 0 0 0 0 0
9 9 8 7 6 5 3 2 0 0 0 0 0 0 0 0 0 0 0 0 0 0 0 0 0 0 0 0 0 0 0 1 3 4 5 3 2 0 0 0 0 0 0
10 10 9 9 9 8 6 5 3 2 1 0 0 0 0 0 0 0 0 0 0 0 0 0 0 0 0 0 0 0 0 2 4 6 7 6 3 1 1 0 0 0 0
8 8 8 9 9 8 7 7 6 5 3 1 1 0 0 0 0 0 0 0 0 0 0 0 0 0 0 0 0 0 0 1 3 5 7 7 5 3 2 1 1 0 0
5 6 6 7 7 7 7 7 7 6 5 3 1 0 0 0 0 0 0 0 0 0 0 0 0 0 0 0 0 0 0 0 1 2 4 5 5 5 5 4 3 1 0
3 4 5 4 4 5 6 6 5 4 3 2 1 0 0 0 0 0 0 1 1 0 0 0 0 0 0 0 0 0 0 0 0 0 1 2 3 5 7 7 6 3 2
1 2 3 2 2 3 4 3 3 2 1 0 0 0 0 0 0 0 1 2 2 1 0 0 0 0 0 0 0 0 0 0 0 0 0 0 1 2 4 6 6 5 4
1 0 1 1 2 2 2 1 1 0 0 0 0 0 0 0 0 0 1 2 2 2 1 0 0 0 0 0 0 0 0 0 0 0 0 0 0 0 1 2 3 3 4
1 0 0 1 1 1 1 0 0 0 0 0 0 0 0 0 0 1 2 2 1 2 2 1 0 0 0 0 0 0 0 0 0 0 0 0 0 0 0 0 0 1 1
2 1 0 0 0 0 0 0 0 0 0 0 0 0 0 0 0 1 2 2 1 1 2 2 1 0 0 0 0 0 0 0 0 0 0 0 0 0 0 0 0 0 0
3 2 0 0 0 0 0 0 0 0 0 0 0 0 0 0 0 0 1 2 2 2 3 2 2 1 0 0 0 0 0 0 0 0 0 0 0 0 0 0 0 0 0
5 3 1 0 0 0 0 0 0 0 0 0 0 0 0 0 0 0 1 2 3 3 3 3 3 3 1 0 0 0 0 0 0 0 0 0 0 0 0 0 0 0 0
7 5 2 1 0 0 0 0 0 0 0 0 0 0 0 0 0 0 1 3 3 3 3 2 3 3 2 1 0 0 0 0 0 0 0 0 0 0 0 0 0 0 0
8 7 4 3 2 1 0 1 0 0 1 2 1 0 0 0 0 1 2 3 3 3 3 3 3 3 2 1 0 0 0 0 0 0 0 0 0 0 0 0 0 0 0
8 7 5 4 2 1 0 0 0 1 2 3 2 1 0 0 1 2 2 2 2 2 3 3 3 2 1 0 0 0 0 0 0 0 0 0 0 0 0 0 0 0 0
7 7 5 3 1 0 0 0 1 2 3 3 3 1 1 1 1 1 1 1 1 1 2 3 4 3 2 1 1 0 0 0 1 1 1 0 0 0 0 0 0 0 0
8 7 6 3 2 1 0 0 1 3 4 4 3 3 2 1 0 0 0 0 0 0 2 3 4 4 3 2 2 1 1 1 2 2 2 1 1 1 1 1 0 0 0
12 9 6 4 3 2 1 0 1 4 5 4 3 2 2 1 0 0 0 0 0 1 2 3 4 3 3 3 3 3 2 2 3 3 3 3 2 2 2 2 1 0 0
16 12 8 5 4 3 1 0 1 2 3 2 1 1 2 2 1 0 0 0 0 1 2 2 3 3 3 2 2 2 2 2 2 3 3 3 2 1 1 1 1 0 0
16 14 11 8 5 3 1 0 0 1 1 0 0 1 2 2 1 0 0 0 0 1 1 1 1 2 1 1 1 1 1 1 1 1 2 2 1 0 0 0 0 0 0
14 13 12 9 6 4 1 0 0 0 0 0 0 1 1 1 0 0 0 0 1 1 1 0 0 1 0 0 0 1 1 1 0 0 1 2 1 0 0 0 0 0 0

GEFSMA_con_prob3kmehi_228.txt.gz
EHI
0 0 0 1 0 0 0 0 0 0 1 0 0 0 0 0 0 0 0 1 1 0 0 1 2 2 3 3 1 0 0 0 0 0 0 0 0 0 0 0 1 1 1
0 0 1 2 2 1 1 1 0 1 1 0 0 0 0 0 0 0 0 1 2 1 1 1 1 1 2 3 2 1 1 0 0 0 0 0 0 0 0 0 0 0 0
2 2 3 5 4 2 2 3 2 2 1 0 0 0 0 0 0 0 0 1 2 2 2 2 1 1 2 2 2 2 2 1 0 0 0 0 0 0 0 0 0 0 0
5 6 6 6 5 4 4 5 5 4 2 1 1 0 0 1 1 0 0 0 1 2 3 3 3 3 3 2 2 2 2 2 1 1 1 0 0 0 0 0 0 0 0
8 9 10 8 6 5 5 5 6 6 5 3 2 0 1 2 2 1 1 1 2 2 3 3 3 3 4 3 2 1 1 2 2 2 1 0 0 0 0 0 0 0 0
10 11 11 10 8 7 7 7 7 8 8 6 3 1 1 2 3 3 2 2 2 2 2 3 3 4 5 5 4 3 2 1 1 1 1 0 0 0 0 0 0 0 0
10 12 12 10 10 10 10 9 9 10 11 10 7 4 3 3 3 3 3 2 1 0 1 1 3 4 5 7 7 6 5 4 2 1 1 1 1 0 0 0 0 0 0
7 9 10 10 9 10 11 11 11 12 12 12 10 7 4 3 3 2 2 1 1 1 0 1 3 4 6 7 7 7 8 9 6 3 2 3 3 1 1 0 0 0 0
5 6 8 8 7 7 9 10 11 11 12 12 11 9 6 5 4 2 1 1 2 2 1 1 2 4 5 6 6 5 7 8 7 4 4 4 4 3 2 1 0 0 0
6 6 7 8 8 8 8 9 9 10 11 11 10 9 8 7 6 4 2 2 1 1 1 0 1 2 3 4 5 3 2 3 4 4 4 4 3 2 2 2 1 1 1
9 8 9 10 11 11 10 10 10 10 10 9 9 8 8 7 6 5 3 2 1 1 1 1 0 0 2 4 4 2 0 0 1 2 2 2 1 2 3 3 4 4 3
12 11 12 12 13 12 11 10 10 9 8 7 7 6 5 4 4 3 2 2 2 2 2 2 1 1 2 4 4 2 0 0 0 0 1 1 0 1 2 3 5 5 5
14 15 15 15 15 13 11 9 9 8 7 6 5 5 3 2 2 1 1 2 2 2 2 2 2 2 3 4 4 2 1 0 0 0 0 0 0 0 1 1 3 3 3
16 17 16 16 15 13 10 8 8 7 7 7 5 5 4 3 2 2 2 3 3 2 1 2 2 2 3 3 2 2 2 1 0 0 0 0 0 0 0 0 1 1 1
18 17 15 15 13 10 9 9 8 8 8 7 6 7 6 4 3 3 4 6 6 4 2 2 2 2 2 2 1 1 2 2 0 0 0 0 0 0 0 0 0 0 0
22 20 17 15 12 10 10 10 9 9 8 7 6 7 7 5 4 4 5 7 8 7 4 3 3 2 2 2 1 1 2 1 0 0 0 0 0 0 0 0 0 0 0
26 25 23 20 16 12 12 13 11 9 8 8 8 8 8 9 8 6 6 7 9 8 5 3 3 3 2 3 2 2 1 1 1 0 0 0 0 0 0 0 0 0 0
29 29 28 25 21 16 14 15 13 9 8 9 11 12 12 13 12 9 7 6 7 7 5 3 4 5 5 4 4 3 3 3 2 0 0 0 0 0 0 0 0 0 0
32 32 31 29 25 20 17 16 13 10 10 12 14 14 13 14 13 10 8 6 5 5 5 4 6 8 6 5 5 6 5 6 3 0 0 0 0 0 0 0 0 0 0
35 35 34 32 28 23 21 18 14 11 13 15 15 14 13 12 11 10 9 8 7 6 5 5 5 6 5 3 5 6 6 5 3 1 1 0 0 0 0 0 0 0 0
35 36 35 34 31 26 21 18 14 13 15 16 16 15 14 12 9 8 8 8 7 6 5 4 2 2 2 2 3 4 4 2 2 2 2 1 0 1 1 1 0 0 0
34 35 35 35 33 25 17 12 12 14 17 18 17 16 14 12 9 6 4 3 3 4 3 2 1 1 2 1 2 2 1 0 1 3 2 1 0 1 2 1 0 0 0
34 33 33 34 32 24 13 6 6 10 14 17 18 16 14 11 9 7 4 3 2 2 2 2 2 2 1 1 2 2 1 0 1 2 1 0 0 1 1 1 0 0 0
34 33 31 30 28 21 11 3 2 6 10 14 17 16 14 10 7 6 5 5 5 3 2 2 2 2 1 1 1 1 1 0 0 1 2 1 1 0 0 1 1 0 0
30 30 27 24 22 18 10 3 2 6 9 12 15 14 11 7 4 3 4 5 5 4 2 1 1 1 0 0 0 1 1 1 1 2 3 3 1 0 1 2 2 1 0
26 25 23 20 18 16 9 2 2 7 10 12 13 11 7 5 3 2 3 4 4 3 1 0 0 0 0 0 0 0 1 2 2 3 3 3 1 0 1 2 2 1 0